Change the Weather History Date:

Saturday, May 4, 2013

  Actual Average (KCRP) Record (KCRP)
Temperature  
Mean Temperature 66 °F 76 °F  
Max Temperature 84 °F 85 °F 100 °F (1999)
Min Temperature 49 °F 68 °F 47 °F (1970)
Degree Days  
Heating Degree Days 0 0  
Month to date heating degree days 0  
Since 1 July heating degree days 898  
Cooling Degree Days 1 11  
Month to date cooling degree days 44  
Year to date cooling degree days 472  
Growing Degree Days 16 (Base 50)    
Moisture  
Dew Point 38 °F    
Average Humidity 40    
Maximum Humidity 72    
Minimum Humidity 12    
Precipitation  
Precipitation 0.00 in 0.09 in 2.16 in (1966)
Month to date precipitation 0.33  
Year to date precipitation 7.53  
Snow  
Snow 0.00 in - - ()
Month to date snowfall  
Since 1 July snowfall  
Snow Depth -    
Sea Level Pressure  
Sea Level Pressure 30.02 in    
Wind  
Wind Speed 7 mph (South)    
Max Wind Speed 22 mph    
Max Gust Speed 24 mph    
Visibility 10 miles    
Events      
T = Trace of Precipitation, MM = Missing Value Source: NWS Daily Summary

Daily Weather History Graph

Daily Weather History Graph

Search for Another Location

Airport or City:

Trip Planner

Search our weather history database for the weather conditions in past years. The results will help you decide how hot, cold, wet, or windy it might be!

Date:

Astronomy

May. 04, 2013 Rise Set
Actual Time 6:48 AM CDT 8:06 PM CDT
Civil Twilight 6:23 AM CDT 8:31 PM CDT
Nautical Twilight 5:54 AM CDT 9:01 PM CDT
Astronomical Twilight 5:23 AM CDT 9:32 PM CDT
Moon 3:20 AM CDT (5/4) 3:30 PM CDT (5/4)
Length of Visible Light 14h 08m
Length of Day
13h 18m
Waning Crescent, 27% of the Moon is Illuminated
May 4
Waning Crescent
May 9
New
May 17
First Quarter
May 24
Full
May 31
Last Quarter

Hourly Weather History & Observations

Time (CDT) Temp. Dew Point Humidity Pressure Visibility Wind Dir Wind Speed Gust Speed Precip Events Conditions
12:15 AM 60.8 °F 32.0 °F 34% 30.12 in 10.0 mi ENE 5.8 mph - N/A   Clear
12:35 AM 58.3 °F 33.1 °F 39% 30.12 in 10.0 mi East 4.6 mph - N/A   Clear
12:55 AM 58.5 °F 33.3 °F 39% 30.11 in 10.0 mi East 4.6 mph - N/A   Clear
1:15 AM 58.8 °F 35.1 °F 41% 30.11 in 10.0 mi ESE 3.5 mph - N/A   Clear
1:35 AM 57.9 °F 37.0 °F 46% 30.11 in 10.0 mi ESE 3.5 mph - N/A   Clear
1:55 AM 56.3 °F 37.9 °F 50% 30.10 in 10.0 mi ESE 4.6 mph - N/A   Clear
2:15 AM 55.2 °F 37.8 °F 52% 30.09 in 10.0 mi ESE 6.9 mph - N/A   Clear
2:35 AM 55.4 °F 37.8 °F 52% 30.08 in 10.0 mi ESE 4.6 mph - N/A   Clear
2:55 AM 54.5 °F 37.9 °F 54% 30.08 in 10.0 mi Calm Calm - N/A   Clear
3:15 AM 54.0 °F 39.7 °F 59% 30.08 in 10.0 mi South 3.5 mph - N/A   Clear
3:35 AM 53.8 °F 39.4 °F 58% 30.07 in 10.0 mi SE 4.6 mph - N/A   Clear
3:55 AM 52.9 °F 40.3 °F 62% 30.07 in 10.0 mi SSE 3.5 mph - N/A   Clear
4:15 AM 51.8 °F 41.2 °F 67% 30.06 in 10.0 mi South 4.6 mph - N/A   Clear
4:35 AM 52.2 °F 41.0 °F 66% 30.06 in 10.0 mi South 4.6 mph - N/A   Clear
4:55 AM 51.8 °F 41.0 °F 67% 30.07 in 10.0 mi South 3.5 mph - N/A   Clear
5:15 AM 51.8 °F 41.0 °F 67% 30.06 in 10.0 mi Calm Calm - N/A   Clear
5:35 AM 50.7 °F 41.0 °F 69% 30.06 in 10.0 mi SW 6.9 mph - N/A   Clear
5:55 AM 50.0 °F 41.2 °F 72% 30.06 in 10.0 mi SW 9.2 mph - N/A   Clear
6:15 AM 50.0 °F 40.3 °F 69% 30.06 in 10.0 mi SW 5.8 mph - N/A   Clear
6:35 AM 50.0 °F 39.4 °F 67% 30.06 in 10.0 mi SW 5.8 mph - N/A   Clear
6:55 AM 49.8 °F 39.6 °F 68% 30.06 in 10.0 mi SW 5.8 mph - N/A   Clear
7:15 AM 50.2 °F 39.7 °F 67% 30.07 in 10.0 mi WSW 6.9 mph - N/A   Clear
7:35 AM 51.8 °F 40.6 °F 66% 30.07 in 10.0 mi WSW 8.1 mph - N/A   Clear
7:55 AM 53.8 °F 42.3 °F 65% 30.08 in 10.0 mi WSW 5.8 mph - N/A   Clear
8:15 AM 57.6 °F 42.1 °F 56% 30.08 in 10.0 mi SW 10.4 mph - N/A   Clear
8:35 AM 59.4 °F 42.6 °F 54% 30.08 in 10.0 mi SW 10.4 mph - N/A   Clear
9:15 AM 65.3 °F 41.9 °F 42% 30.09 in 10.0 mi SW 11.5 mph - N/A   Clear
9:35 AM 67.3 °F 40.8 °F 38% 30.08 in 10.0 mi SSW 11.5 mph - N/A   Clear
9:55 AM 68.9 °F 39.6 °F 34% 30.09 in 10.0 mi SSW 11.5 mph - N/A   Clear
10:15 AM 71.1 °F 37.4 °F 29% 30.08 in 10.0 mi SSW 13.8 mph - N/A   Clear
10:35 AM 71.6 °F 36.1 °F 27% 30.08 in 10.0 mi SSW 12.7 mph - N/A   Clear
10:55 AM 72.5 °F 34.5 °F 25% 30.07 in 10.0 mi SW 9.2 mph - N/A   Clear
11:15 AM 73.6 °F 35.1 °F 25% 30.07 in 10.0 mi South 10.4 mph 16.1 mph N/A   Clear
11:35 AM 75.7 °F 32.4 °F 20% 30.06 in 10.0 mi SSW 10.4 mph 16.1 mph N/A   Clear
11:55 AM 75.7 °F 32.0 °F 20% 30.05 in 10.0 mi SSW 9.2 mph - N/A   Clear
12:15 PM 76.8 °F 31.1 °F 19% 30.04 in 10.0 mi SW 8.1 mph - N/A   Clear
12:35 PM 77.9 °F 30.4 °F 18% 30.03 in 10.0 mi SW 8.1 mph 17.3 mph N/A   Clear
12:55 PM 78.3 °F 30.4 °F 17% 30.02 in 10.0 mi SW 9.2 mph 16.1 mph N/A   Clear
1:15 PM 79.2 °F 29.3 °F 16% 30.01 in 10.0 mi SE 6.9 mph - N/A   Clear
1:35 PM 79.7 °F 29.3 °F 16% 30.00 in 10.0 mi SW 4.6 mph 11.5 mph N/A   Clear
1:55 PM 80.1 °F 27.7 °F 15% 29.99 in 10.0 mi SSW 4.6 mph - N/A   Clear
2:15 PM 81.1 °F 28.0 °F 14% 29.98 in 10.0 mi SSE 9.2 mph - N/A   Clear
2:35 PM 81.7 °F 27.9 °F 14% 29.97 in 10.0 mi Calm Calm - N/A   Clear
2:55 PM 83.3 °F 27.7 °F 13% 29.97 in 10.0 mi South 9.2 mph - N/A   Clear
3:15 PM 82.8 °F 27.0 °F 13% 29.96 in 10.0 mi SW 10.4 mph 16.1 mph N/A   Clear
3:35 PM 83.5 °F 27.3 °F 13% 29.94 in 10.0 mi Calm Calm - N/A   Clear
3:55 PM 83.7 °F 27.1 °F 13% 29.93 in 10.0 mi WSW 3.5 mph - N/A   Clear
4:15 PM 82.9 °F 25.0 °F 12% 29.92 in 10.0 mi SSE 10.4 mph - N/A   Clear
4:35 PM 83.7 °F 26.2 °F 12% 29.91 in 10.0 mi SSW 3.5 mph - N/A   Clear
4:55 PM 83.3 °F 29.3 °F 14% 29.90 in 10.0 mi South 11.5 mph 17.3 mph N/A   Clear
5:15 PM 82.0 °F 35.6 °F 19% 29.90 in 10.0 mi South 11.5 mph 16.1 mph N/A   Clear
5:35 PM 80.4 °F 38.3 °F 22% 29.90 in 10.0 mi SSE 16.1 mph 20.7 mph N/A   Clear
5:55 PM 77.5 °F 40.1 °F 26% 29.90 in 10.0 mi SE 20.7 mph - N/A   Clear
6:15 PM 76.1 °F 41.0 °F 28% 29.91 in 10.0 mi SE 20.7 mph - N/A   Clear
6:35 PM 75.2 °F 38.5 °F 27% 29.91 in 10.0 mi SE 20.7 mph - N/A   Clear
6:55 PM 74.3 °F 35.2 °F 24% 29.91 in 10.0 mi SSE 18.4 mph 24.2 mph N/A   Clear
7:15 PM 73.4 °F 36.5 °F 26% 29.91 in 10.0 mi SE 21.9 mph - N/A   Clear
7:35 PM 72.9 °F 37.4 °F 28% 29.92 in 10.0 mi SE 20.7 mph - N/A   Clear
7:55 PM 71.8 °F 38.1 °F 29% 29.93 in 10.0 mi SE 16.1 mph - N/A   Clear
8:15 PM 70.9 °F 37.8 °F 30% 29.94 in 10.0 mi SE 16.1 mph - N/A   Clear
8:35 PM 70.2 °F 41.4 °F 35% 29.94 in 10.0 mi SE 12.7 mph - N/A   Clear
8:55 PM 69.6 °F 44.2 °F 40% 29.96 in 10.0 mi SE 11.5 mph - N/A   Clear
9:15 PM 68.9 °F 46.6 °F 45% 29.96 in 10.0 mi SSE 11.5 mph - N/A   Clear
9:35 PM 68.4 °F 48.4 °F 49% 29.96 in 10.0 mi SSE 10.4 mph - N/A   Clear
9:55 PM 68.2 °F 50.2 °F 53% 29.96 in 10.0 mi SE 10.4 mph - N/A   Clear
10:15 PM 67.5 °F 51.1 °F 56% 29.97 in 10.0 mi SE 9.2 mph - N/A   Clear
10:35 PM 66.7 °F 51.8 °F 59% 29.97 in 10.0 mi SSE 8.1 mph - N/A   Clear
10:55 PM 66.0 °F 51.8 °F 60% 29.98 in 10.0 mi SE 5.8 mph - N/A   Clear
11:15 PM 65.1 °F 51.8 °F 62% 29.99 in 10.0 mi SE 5.8 mph - N/A   Clear
11:35 PM 64.9 °F 51.8 °F 62% 29.99 in 10.0 mi SE 5.8 mph - N/A   Clear
11:55 PM 64.9 °F 52.2 °F 63% 29.99 in 10.0 mi SE 5.8 mph - N/A   Clear